Flag for Canada Weather past 2 weeks in Moose Jaw, Saskatchewan, Canada

Now
32 °F

Light snow. Ice fog.


Feels Like: 19 °F
Forecast: 34 / 39 °F
Wind: 25 mph from Southeast

Location: Regina Weather Station


UV Index: 0 (Low)

Visibility: 6 mi


Pressure: 29.94 "Hg

Humidity: 80%

Dew point: 27 °F

Location of Moose JawLocation

Historic Weather in Moose Jaw

°F

Moose Jaw temperature yesterday

Maximum temperature yesterday: 41 °F (at 3:00 PM)
Minimum temperature yesterday: 21 °F (at 12:00 AM)
Average temperature yesterday: 31 °F

Past Weeks' High & Low Weather Summary

 TemperatureHumidityPressure
High59 °F (Apr 8, 4:00 PM)100% (Apr 5, 3:00 AM)30.45 "Hg (Apr 5, 3:00 AM)
Low12 °F (Apr 14, 4:00 AM)40% (Apr 10, 2:00 PM)29.51 "Hg (Apr 9, 6:00 AM)
Average33 °F75%30.01 "Hg
* Reported Apr 3 8:00 AM — Apr 18 8:00 AM, Moose Jaw, Weather by CustomWeather, © 2014

Note: Actual official high and low records may vary slightly from our data, if they occured in-between our weather recording intervals... More about our weather records

Advertising

Historic Weather Conditions — Data for Previous 24 hours

 ConditionsComfort  
Time TempWeatherWind HumidityBarometerVisibility
8:00 AM
Apr 18
32 °FLight snow. Ice fog.25 mph80%29.94 "Hg6 mi
7:00 AM32 °FLight freezing rain. Overcast.25 mph80%29.95 "Hg15 mi
6:00 AM32 °FRain. Overcast.24 mph80%29.96 "Hg12 mi
5:00 AM34 °FOvercast.22 mph65%29.96 "Hg15 mi
4:00 AM34 °FOvercast.23 mph65%29.98 "Hg15 mi
3:00 AM34 °FOvercast.21 mph65%30.01 "Hg15 mi
2:00 AM32 °FPartly cloudy.22 mph64%30.03 "Hg15 mi
1:00 AM32 °FMostly cloudy.24 mph64%30.06 "Hg15 mi
12:00 AM34 °FMostly cloudy.24 mph60%30.07 "Hg15 mi
11:00 PM
Apr 17
34 °FOvercast.28 mph65%30.09 "Hg15 mi
10:00 PM36 °FOvercast.25 mph60%30.10 "Hg15 mi
9:00 PM36 °FPassing clouds.23 mph60%30.10 "Hg15 mi
8:00 PM36 °FPartly cloudy.22 mph60%30.11 "Hg15 mi
7:00 PM39 °FScattered showers. Partly sunny.22 mph56%30.11 "Hg15 mi
6:00 PM39 °FMostly cloudy.23 mph56%30.13 "Hg15 mi
5:00 PM41 °FMostly cloudy.23 mph49%30.13 "Hg15 mi
4:00 PM41 °FMostly cloudy.28 mph49%30.14 "Hg15 mi
3:00 PM41 °FMostly cloudy.28 mph45%30.16 "Hg15 mi
2:00 PM39 °FMore clouds than sun.23 mph48%30.19 "Hg15 mi
1:00 PM37 °FMore clouds than sun.24 mph48%30.21 "Hg15 mi
12:00 PM36 °FOvercast.23 mph52%30.23 "Hg15 mi
11:00 AM34 °FHigh level clouds.21 mph51%30.26 "Hg15 mi
10:00 AM30 °FOvercast.25 mph55%30.27 "Hg15 mi
9:00 AM28 °FHigh level clouds.26 mph59%30.28 "Hg15 mi
Weather by CustomWeather, © 2014

See weather overview